Location: Bas Lanzent
(48.1360°N, 3.5871°W)
Time: 07:48:18
(UTC+00:00)

SL-16 R/B - Pass Details

Date: 18 February 2020
Orbit: 843 x 847 km, 71.0° (Epoch: 03 April)

Event Time Altitude Azimuth Distance (km) Brightness Sun altitude
Exits shadow 04:28:50 75° 144° (SE) 879 2.2 -28.6°
Maximum altitude 04:29:06 77° 115° (ESE) 873 2.2 -28.5°
Drops below altitude 10° 04:34:47 10° 30° (NNE) 2,476 5.1 -27.6°
Sets 04:37:14 0° 29° (NNE) 3,414 5.9 -27.2°
